ARIANE 5 DEB (SYLDA), 46115

Orbit data source: Space-Track

ARIANE 5 DEB (SYLDA), 46115 is space debris in HEO originally from a launch on Sat, 15 Aug 2020 UTC launched from the French Guiana (FRGUI). Debris objects in space refer to the collection of defunct objects orbiting the Earth. Examples of debris include non-operational satellites, rocket bodies, and fragments generated from explosions, collisions, or faulty payload assembly.

Loading next visibility...
Identifier
46115, 2020-056D
Orbit
HEO
Country
Flag of FRFR
Related business
Manufacturer
ADS/Bremen
Mission
Spacecraft
Bus & Motor
SYLDA 5, Unknown motor
Mass
440 kg wet, 440 kg dry
Launch date (UTC)
2020-08-15 (6 years ago)
Launch vehicle
Unknown
Launch site
French Guiana (FRGUI)
Object type
Payload
Rocket body
Debris
Shape & HBR
Cyl, Unknown HBR
Radar Cross Section
27.391 m², Large (>1 m²)

Expand to show TLE details & history
Last TLE update: 2 days ago

TLE from 2 days ago
0 ARIANE 5 DEB (SYLDA)
1 46115U 20056D   26171.30937312  .00019611  00000-0  54525-2 0  9996
2 46115   6.1342 138.9220 6571742 127.5799 312.0830  3.20857635 57011
Epoch: 2026-06-20T07:25Z
TLE epoch observation values (Epoch: 2026-06-20T07:25:29.837Z)
Latitude
0.00001°
Longitude
118.95088°
Altitude
12,033.561 km
Speed
4.772 km/s
True Right ascension
09h 15m 24s
True Declination
0° 00' 00"
Sunlit
Object was in daylight at epoch
Visualization orbit readout
Latitude
Unknown
Longitude
Unknown
Altitude
Unknown
Speed
Unknown
Apparent Right ascension
Unknown
Apparent Declination
Unknown
Sunlit
N/A
Visualization observer readout
Local Sidereal Time
21:25:48
Azimuth
Unknown
Elevation
Unknown
Doppler factor
Unknown
Orbital elements
Apogee altitude
25,808.712 km
Perigee altitude
280.476 km
Semi-major axis
19,422.731 km
Eccentricity
0.65717
Inclination
6.1342°
RAAN
138.922°
Arg. of periapsis
127.5799°
True anomaly
232.4361°
Mean anomaly
312.083°
Eccentric anomaly
274.54827°
Mean motion
0.80182 °/min
Orbital period
448.98 mins
BSTAR
0.0054525
Loading maneuver chart data...
Computing Atmospheric mass density...
Loading historical data...
Loading historical data...
Loading historical data...
Loading historical data...
Loading historical data...
Loading historical data...
Loading historical data...
Other satellites on launch #56 in the year 2020 (2020-08-15 UTC)

Documentation

Showing up to 5 results
|